Date,TemperatureHighF,TemperatureAvgF,TemperatureLowF,DewpointHighF,DewpointAvgF,DewpointLowF,HumidityHigh,HumidityAvg,HumidityLow,PressureMaxIn,PressureMinIn,WindSpeedMaxMPH,WindSpeedAvgMPH,GustSpeedMaxMPH,PrecipitationSumIn
2013-1-1,19.7,12.4,4.9,12.8,6.7,1.3,87,78,62,30.33,30.19,9,3,12,0.00
2013-1-2,30.6,19.3,5.4,24.4,14.4,2.1,88,81,73,30.27,30.10,14,7,17,0.00
2013-1-3,29.4,23.6,10.9,26.8,19.4,7.0,90,84,72,30.37,30.15,19,8,26,0.00
2013-1-4,33.7,21.9,10.0,26.9,17.8,6.7,92,84,73,30.35,30.23,16,8,22,0.00
2013-1-5,35.9,29.2,18.8,33.9,26.7,16.4,94,90,82,30.26,29.97,19,9,23,0.00
2013-1-6,32.3,21.6,14.9,27.3,17.9,12.0,91,86,77,30.35,29.98,20,8,24,0.00
2013-1-7,39.3,28.6,14.9,31.2,24.0,12.0,90,83,66,30.34,30.09,20,10,23,0.00
2013-1-8,43.2,34.9,27.6,35.5,30.4,24.5,89,84,73,30.15,30.00,14,9,20,0.00
2013-1-9,45.1,36.2,28.3,36.3,31.0,25.4,91,82,61,30.50,30.03,13,6,17,0.00
2013-1-10,40.1,33.7,26.5,37.9,31.0,24.3,99,90,73,30.49,29.81,17,5,21,0.95
2013-1-11,53.1,46.3,36.9,51.4,45.1,36.4,100,96,87,29.81,29.60,18,9,23,0.16
2013-1-12,51.4,35.2,21.3,47.6,30.9,18.8,93,84,76,30.04,29.64,19,9,25,0.00
2013-1-13,21.5,16.6,10.0,19.4,11.8,6.6,92,81,74,30.33,29.94,17,8,20,0.00
2013-1-14,28.4,14.9,6.6,15.2,9.1,3.8,89,78,51,30.52,30.33,8,2,12,0.00
2013-1-15,29.7,17.6,8.3,19.4,12.4,5.7,90,81,59,30.48,30.17,8,2,12,0.00
2013-1-16,36.6,27.4,13.7,33.7,21.8,10.5,91,80,67,30.17,29.89,17,8,22,0.00
2013-1-17,36.8,27.5,20.1,33.6,20.5,13.1,89,76,51,30.45,30.12,11,4,15,0.00
2013-1-18,46.6,35.3,21.9,36.3,28.7,18.4,87,77,66,30.44,29.92,25,13,32,0.00
2013-1-19,50.5,40.4,22.4,39.5,32.5,11.3,85,74,56,30.12,29.77,26,13,36,0.00
2013-1-20,22.1,15.7,11.4,12.5,8.7,4.7,84,73,60,30.38,30.12,21,9,26,0.00
2013-1-21,13.7,8.2,3.7,8.0,-0.2,-5.7,81,69,50,30.39,30.25,20,12,26,0.00
2013-1-22,14.3,8.1,-0.3,3.3,-1.1,-6.2,80,66,54,30.48,30.38,13,7,18,0.00
2013-1-23,30.5,18.9,12.0,15.8,8.5,2.9,79,64,52,30.46,30.15,15,8,23,0.00
2013-1-24,21.7,14.0,5.4,11.3,3.0,-4.0,70,61,49,30.70,30.33,13,6,17,0.00
2013-1-25,37.1,25.1,16.7,23.0,15.9,8.6,89,68,51,30.33,30.02,18,8,22,0.00
2013-1-26,31.2,20.7,7.8,18.0,11.7,4.0,86,69,48,30.44,30.27,10,4,12,0.00
2013-1-27,41.6,32.2,27.0,41.1,27.9,17.1,99,85,67,30.35,29.83,18,9,22,0.43
2013-1-28,53.6,43.3,39.8,53.5,42.8,39.3,100,98,96,29.95,29.69,17,6,22,0.04
2013-1-29,61.8,52.0,37.7,59.6,51.2,37.4,100,97,91,29.68,29.41,21,9,26,1.16
2013-1-30,37.6,28.4,15.7,37.3,26.7,11.4,99,93,81,29.79,29.27,21,11,28,0.42
2013-1-31,18.1,10.4,1.9,14.4,5.4,-3.7,86,80,74,30.34,29.79,22,15,28,0.00